This is the latest recevied weather packets stored in our database for station/object KC5DAQ-26. If no packets are shown the sender has not sent any weather packets the latest 10 day(s).
| Time | Temp. | Humidity | Pressure | Rain* | Wind** | Luminosity | Snow |
|---|---|---|---|---|---|---|---|
| 1787780103 | 37.22° C | 48% | 1016.3 hPa | 0 mm | - | 589 W/m² | - |
| 1787780043 | 37.22° C | 49% | 1016.3 hPa | 0 mm | - | 591 W/m² | - |
| 1787779982 | 37.22° C | 48% | 1016.3 hPa | 0 mm | - | 589 W/m² | - |
| 1787779923 | 37.78° C | 48% | 1016.3 hPa | 0 mm | - | 591 W/m² | - |
| 1787779863 | 37.22° C | 48% | 1016.3 hPa | 0 mm | - | 601 W/m² | - |
| 1787779808 | 37.78° C | 48% | 1016.3 hPa | 0 mm | - | 601 W/m² | - |
| 1787779744 | 37.22° C | 48% | 1016.3 hPa | 0 mm | - | 605 W/m² | - |
| 1787779683 | 37.22° C | 48% | 1016.3 hPa | 0 mm | - | 607 W/m² | - |
| 1787779624 | 37.22° C | 48% | 1016.3 hPa | 0 mm | - | 612 W/m² | - |
| 1787779564 | 37.22° C | 49% | 1016.3 hPa | 0 mm | - | 614 W/m² | - |
| 1787779503 | 37.22° C | 49% | 1016.4 hPa | 0 mm | - | 617 W/m² | - |
| 1787779443 | 37.22° C | 50% | 1016.4 hPa | 0 mm | - | 621 W/m² | - |
| 1787779382 | 37.22° C | 48% | 1016.4 hPa | 0 mm | - | 624 W/m² | - |
| 1787779323 | 37.22° C | 48% | 1016.3 hPa | 0 mm | - | 630 W/m² | - |
| 1787779264 | 37.22° C | 46% | 1016.4 hPa | 0 mm | - | 635 W/m² | - |
| 1787779204 | 37.22° C | 50% | 1016.4 hPa | 0 mm | - | 638 W/m² | - |
| 1787779143 | 37.22° C | 49% | 1016.4 hPa | 0 mm | - | 640 W/m² | - |
| 1787779084 | 37.22° C | 52% | 1016.4 hPa | 0 mm | - | 644 W/m² | - |
| 1787779023 | 37.22° C | 51% | 1016.4 hPa | 0 mm | - | 645 W/m² | - |
| 1787778963 | 37.22° C | 49% | 1016.4 hPa | 0 mm | - | 652 W/m² | - |
| 1787778904 | 37.22° C | 48% | 1016.4 hPa | 0 mm | - | 652 W/m² | - |
| 1787778844 | 37.22° C | 50% | 1016.4 hPa | 0 mm | - | 654 W/m² | - |
| 1787778782 | 37.22° C | 50% | 1016.5 hPa | 0 mm | - | 666 W/m² | - |
| 1787778722 | 37.22° C | 47% | 1016.5 hPa | 0 mm | - | 666 W/m² | - |
| 1787778663 | 37.22° C | 47% | 1016.4 hPa | 0 mm | - | 672 W/m² | - |
* Rain latest hour (hover to see other rain measurements)
** Current wind speed in m/s (hover to see current wind gust speed)